Location: Bord�res
(43.2000°N, 0.2167°W)
Time: 13:13:48
(UTC+00:00)

COSMOS 2428 - Pass Details

Date: 03 March 2021
Orbit: 845 x 858 km, 70.9° (Epoch: 14 April)

Event Time Altitude Azimuth Distance (km) Brightness Sun altitude
Rises 19:15:28 0° 174° (S) 3,389 5.7 -15.9°
Reaches altitude 10° 19:18:09 10° 164° (SSE) 2,459 4.9 -16.4°
Maximum altitude 19:23:02 31° 104° (ESE) 1,443 3.3 -17.2°
Enters shadow 19:24:45 26° 73° (ENE) 1,608 3.6 -17.6°
